Starlink 11504

operational
NORAD ID: 62274 Int'l Des: 2024-237 Owner: SPXS Country: US Constellation: starlink
LEOCIRCULAR

Über Starlink 11504

Beschreibung wird geladen...

Live-Position

3D-Globus wird geladen...

Nächste Überflüge

Höhenverlauf

Altitude vs Time

uPlot chart will show altitude changes over time

Zweizeiliger Elementsatz

1 62274U 24237H 25304.51094036 .00432282 00000-0 31491-2 0 9992
2 62274 42.9985 115.4513 0003458 249.2133 110.8364 15.71224126 52689
Epoch: 31. Okt. 2025 • Age: 23 hours

Aktueller Status

Höhe 354.4 km
Geschwindigkeit 7.70 km/s
Subsatellitenpunkt 23.13°N, 73.57°W
Startdatum 8. Dez. 2024
Alter 0.8 years
Typ internet

Technische Details

Klassifizierung Payload
Masse 960.00 kg
Trockenmasse 910.00 kg
Gesamtmasse 960.00 kg
Länge 0.30 m
Durchmesser 4.10 m
Spannweite 29.00 m
Form Box + pan
Hersteller SPXS
Bus-Typ Starlink V2MD
Phasenstatus In Orbit
Besitzer/Staat SPXS/US

Große Konstellationen

Loading constellations...